Time,TemperatureF,DewpointF,PressureIn,WindDirection,WindDirectionDegrees,WindSpeedMPH,WindSpeedGustMPH,Humidity,HourlyPrecipIn,Conditions,Clouds,dailyrainin,SoftwareType,DateUTC
2013-03-05 00:00:00,47.1,41.3,29.74,South,184,0.0,0.0,80,0.00,,---,0.00,VWS V14.00,2013-03-05 08:00:00,
2013-03-05 00:05:00,47.0,40.8,29.74,South,184,0.0,0.0,79,0.00,,---,0.00,VWS V14.00,2013-03-05 08:05:00,
2013-03-05 00:10:00,46.8,40.3,29.74,South,184,0.0,0.0,78,0.00,,---,0.00,VWS V14.00,2013-03-05 08:10:00,
2013-03-05 00:15:00,46.8,40.3,29.74,South,184,0.0,0.0,78,0.00,,---,0.00,VWS V14.00,2013-03-05 08:15:00,
2013-03-05 00:20:00,46.7,39.9,29.74,South,184,0.0,1.0,77,0.00,,---,0.00,VWS V14.00,2013-03-05 08:20:00,
2013-03-05 00:25:00,46.7,39.5,29.74,South,184,0.0,0.0,76,0.00,,---,0.00,VWS V14.00,2013-03-05 08:25:00,
2013-03-05 00:30:00,46.8,39.3,29.74,South,184,0.0,0.0,75,0.00,,---,0.00,VWS V14.00,2013-03-05 08:30:00,
2013-03-05 00:35:00,46.8,39.0,29.73,South,184,0.0,0.0,74,0.00,,---,0.00,VWS V14.00,2013-03-05 08:35:00,
2013-03-05 00:40:00,46.7,38.9,29.73,South,184,0.0,0.0,74,0.00,,---,0.00,VWS V14.00,2013-03-05 08:40:00,
2013-03-05 00:45:00,46.5,39.0,29.73,South,184,0.0,0.0,75,0.00,,---,0.00,VWS V14.00,2013-03-05 08:45:00,
2013-03-05 00:50:00,46.2,39.1,29.73,South,184,0.0,0.0,76,0.00,,---,0.00,VWS V14.00,2013-03-05 08:50:00,
2013-03-05 00:55:00,46.1,39.0,29.73,South,184,0.0,0.0,76,0.00,,---,0.00,VWS V14.00,2013-03-05 08:55:00,
2013-03-05 01:00:00,46.0,39.2,29.73,South,184,0.0,0.0,77,0.00,,---,0.00,VWS V14.00,2013-03-05 09:00:00,
2013-03-05 01:05:00,45.8,39.3,29.73,South,184,0.0,0.0,78,0.00,,---,0.00,VWS V14.00,2013-03-05 09:05:00,
2013-03-05 01:09:00,46.0,39.9,29.73,South,184,0.0,0.0,79,0.00,,---,0.00,VWS V14.00,2013-03-05 09:09:00,
2013-03-05 01:14:00,46.0,40.2,29.73,South,184,0.0,0.0,80,0.00,,---,0.00,VWS V14.00,2013-03-05 09:14:00,
2013-03-05 01:19:00,46.1,40.3,29.72,South,184,0.0,0.0,80,0.00,,---,0.00,VWS V14.00,2013-03-05 09:19:00,
2013-03-05 01:24:00,46.1,40.3,29.72,South,184,0.0,0.0,80,0.00,,---,0.00,VWS V14.00,2013-03-05 09:24:00,
2013-03-05 01:29:00,46.1,40.3,29.72,South,184,0.0,0.0,80,0.00,,---,0.00,VWS V14.00,2013-03-05 09:29:00,
2013-03-05 01:34:00,46.1,40.3,29.72,South,184,0.0,0.0,80,0.00,,---,0.00,VWS V14.00,2013-03-05 09:34:00,
2013-03-05 01:39:00,46.1,40.3,29.72,South,184,0.0,0.0,80,0.00,,---,0.00,VWS V14.00,2013-03-05 09:39:00,
2013-03-05 01:44:00,46.1,40.6,29.72,South,184,0.0,0.0,81,0.00,,---,0.00,VWS V14.00,2013-03-05 09:44:00,
2013-03-05 01:49:00,46.1,40.6,29.73,South,184,0.0,0.0,81,0.00,,---,0.00,VWS V14.00,2013-03-05 09:49:00,
2013-03-05 01:54:00,46.0,40.2,29.73,South,184,0.0,0.0,80,0.00,,---,0.00,VWS V14.00,2013-03-05 09:54:00,
2013-03-05 01:59:00,45.8,40.3,29.73,South,184,0.0,0.0,81,0.00,,---,0.00,VWS V14.00,2013-03-05 09:59:00,
2013-03-05 02:04:00,45.7,40.2,29.72,South,184,0.0,0.0,81,0.00,,---,0.00,VWS V14.00,2013-03-05 10:04:00,
2013-03-05 02:09:00,45.4,39.9,29.72,South,184,0.0,0.0,81,0.00,,---,0.00,VWS V14.00,2013-03-05 10:09:00,
2013-03-05 02:14:00,45.2,39.7,29.72,South,184,0.0,0.0,81,0.00,,---,0.00,VWS V14.00,2013-03-05 10:14:00,
2013-03-05 02:19:00,45.1,39.9,29.72,South,184,0.0,0.0,82,0.00,,---,0.00,VWS V14.00,2013-03-05 10:19:00,
2013-03-05 02:24:00,44.9,39.8,29.72,South,184,0.0,0.0,82,0.00,,---,0.00,VWS V14.00,2013-03-05 10:24:00,
2013-03-05 02:29:00,44.8,39.7,29.72,South,184,0.0,0.0,82,0.00,,---,0.00,VWS V14.00,2013-03-05 10:29:00,
2013-03-05 02:34:00,44.5,39.4,29.72,South,184,0.0,0.0,82,0.00,,---,0.00,VWS V14.00,2013-03-05 10:34:00,
2013-03-05 02:39:00,44.3,39.2,29.72,South,184,0.0,0.0,82,0.00,,---,0.00,VWS V14.00,2013-03-05 10:39:00,
2013-03-05 02:44:00,44.2,39.1,29.72,South,184,0.0,0.0,82,0.00,,---,0.00,VWS V14.00,2013-03-05 10:44:00,
2013-03-05 02:49:00,44.1,39.3,29.72,South,184,0.0,0.0,83,0.00,,---,0.00,VWS V14.00,2013-03-05 10:49:00,
2013-03-05 02:54:00,43.9,39.1,29.72,South,184,0.0,0.0,83,0.00,,---,0.00,VWS V14.00,2013-03-05 10:54:00,
2013-03-05 02:59:00,43.9,39.1,29.72,South,184,0.0,0.0,83,0.00,,---,0.00,VWS V14.00,2013-03-05 10:59:00,
2013-03-05 03:04:00,43.8,39.0,29.72,South,184,0.0,0.0,83,0.00,,---,0.00,VWS V14.00,2013-03-05 11:04:00,
2013-03-05 03:09:00,43.9,39.1,29.72,South,184,0.0,0.0,83,0.00,,---,0.00,VWS V14.00,2013-03-05 11:09:00,
2013-03-05 03:14:00,43.9,39.1,29.72,South,184,0.0,0.0,83,0.00,,---,0.00,VWS V14.00,2013-03-05 11:14:00,
2013-03-05 03:19:00,44.1,39.0,29.72,South,184,0.0,0.0,82,0.00,,---,0.00,VWS V14.00,2013-03-05 11:19:00,
2013-03-05 03:24:00,44.2,39.1,29.72,South,184,0.0,0.0,82,0.00,,---,0.00,VWS V14.00,2013-03-05 11:24:00,
2013-03-05 03:29:00,44.3,39.2,29.72,South,184,0.0,0.0,82,0.00,,---,0.00,VWS V14.00,2013-03-05 11:29:00,
2013-03-05 03:34:00,44.6,39.1,29.72,South,184,0.0,0.0,81,0.00,,---,0.00,VWS V14.00,2013-03-05 11:34:00,
2013-03-05 03:39:00,44.6,38.8,29.72,South,179,0.0,0.0,80,0.00,,---,0.00,VWS V14.00,2013-03-05 11:39:00,
2013-03-05 03:44:00,44.8,39.0,29.72,South,179,0.0,0.0,80,0.00,,---,0.00,VWS V14.00,2013-03-05 11:44:00,
2013-03-05 03:49:00,44.8,39.0,29.72,South,179,0.0,0.0,80,0.00,,---,0.00,VWS V14.00,2013-03-05 11:49:00,
2013-03-05 03:54:00,44.8,39.0,29.72,South,179,0.0,0.0,80,0.00,,---,0.00,VWS V14.00,2013-03-05 11:54:00,
2013-03-05 03:59:00,44.8,39.0,29.72,South,169,0.0,3.0,80,0.00,,---,0.00,VWS V14.00,2013-03-05 11:59:00,
2013-03-05 04:04:00,44.8,39.0,29.72,South,169,0.0,0.0,80,0.00,,---,0.00,VWS V14.00,2013-03-05 12:04:00,
2013-03-05 04:09:00,44.9,39.1,29.72,South,169,0.0,1.0,80,0.00,,---,0.00,VWS V14.00,2013-03-05 12:09:00,
2013-03-05 04:14:00,44.9,39.1,29.72,South,169,0.0,0.0,80,0.00,,---,0.00,VWS V14.00,2013-03-05 12:14:00,
2013-03-05 04:19:00,44.9,38.8,29.72,South,169,0.0,1.0,79,0.00,,---,0.00,VWS V14.00,2013-03-05 12:19:00,
2013-03-05 04:24:00,44.8,39.0,29.72,South,169,0.0,0.0,80,0.00,,---,0.00,VWS V14.00,2013-03-05 12:24:00,
2013-03-05 04:29:00,44.8,39.0,29.72,South,169,0.0,1.0,80,0.00,,---,0.00,VWS V14.00,2013-03-05 12:29:00,
2013-03-05 04:34:00,44.8,39.0,29.72,South,169,0.0,0.0,80,0.00,,---,0.00,VWS V14.00,2013-03-05 12:34:00,
2013-03-05 04:39:00,44.8,39.0,29.72,South,169,0.0,0.0,80,0.00,,---,0.00,VWS V14.00,2013-03-05 12:39:00,
2013-03-05 04:44:00,44.8,39.0,29.72,South,169,0.0,1.0,80,0.00,,---,0.00,VWS V14.00,2013-03-05 12:44:00,
2013-03-05 04:49:00,44.8,39.0,29.74,South,169,0.0,0.0,80,0.00,,---,0.00,VWS V14.00,2013-03-05 12:49:00,
2013-03-05 04:54:00,44.9,39.1,29.74,South,169,0.0,0.0,80,0.00,,---,0.00,VWS V14.00,2013-03-05 12:54:00,
2013-03-05 04:59:00,45.1,39.3,29.74,SE,133,0.0,1.0,80,0.00,,---,0.00,VWS V14.00,2013-03-05 12:59:00,
2013-03-05 05:04:00,45.2,39.1,29.72,East,92,0.0,4.0,79,0.00,,---,0.00,VWS V14.00,2013-03-05 13:04:00,
2013-03-05 05:09:00,45.2,38.8,29.72,East,81,0.0,5.0,78,0.00,,---,0.00,VWS V14.00,2013-03-05 13:09:00,
2013-03-05 05:14:00,45.2,38.8,29.72,East,89,1.0,5.0,78,0.00,,---,0.00,VWS V14.00,2013-03-05 13:14:00,
2013-03-05 05:19:00,45.2,38.8,29.72,ESE,114,0.0,6.0,78,0.00,,---,0.00,VWS V14.00,2013-03-05 13:19:00,
2013-03-05 05:24:00,45.2,38.8,29.72,ESE,113,0.0,1.0,78,0.00,,---,0.00,VWS V14.00,2013-03-05 13:24:00,
2013-03-05 05:29:00,45.1,38.7,29.72,ESE,113,0.0,2.0,78,0.00,,---,0.00,VWS V14.00,2013-03-05 13:29:00,
2013-03-05 05:34:00,45.1,38.7,29.73,ESE,113,0.0,1.0,78,0.00,,---,0.00,VWS V14.00,2013-03-05 13:34:00,
2013-03-05 05:39:00,45.1,38.7,29.73,SSW,194,0.0,4.0,78,0.00,,---,0.00,VWS V14.00,2013-03-05 13:39:00,
2013-03-05 05:44:00,45.1,39.0,29.73,SSW,192,0.0,4.0,79,0.00,,---,0.00,VWS V14.00,2013-03-05 13:44:00,
2013-03-05 05:49:00,44.9,38.8,29.74,South,179,1.0,5.0,79,0.00,,---,0.00,VWS V14.00,2013-03-05 13:49:00,
2013-03-05 05:54:00,44.8,38.7,29.74,South,179,0.0,2.0,79,0.00,,---,0.00,VWS V14.00,2013-03-05 13:54:00,
2013-03-05 05:59:00,44.6,38.8,29.74,SE,143,0.0,2.0,80,0.00,,---,0.00,VWS V14.00,2013-03-05 13:59:00,
2013-03-05 06:04:00,44.3,38.5,29.74,SE,142,0.0,1.0,80,0.00,,---,0.00,VWS V14.00,2013-03-05 14:04:00,
2013-03-05 06:09:00,44.2,38.4,29.74,SE,138,0.0,4.0,80,0.00,,---,0.00,VWS V14.00,2013-03-05 14:09:00,
2013-03-05 06:14:00,44.1,38.3,29.74,SE,136,0.0,1.0,80,0.00,,---,0.00,VWS V14.00,2013-03-05 14:14:00,
2013-03-05 06:19:00,43.9,38.1,29.74,SE,132,0.0,2.0,80,0.00,,---,0.00,VWS V14.00,2013-03-05 14:19:00,
2013-03-05 06:24:00,43.9,37.8,29.74,SSE,157,2.0,4.0,79,0.00,,---,0.00,VWS V14.00,2013-03-05 14:24:00,
2013-03-05 06:29:00,43.9,37.8,29.74,East,90,0.0,5.0,79,0.00,,---,0.00,VWS V14.00,2013-03-05 14:29:00,
2013-03-05 06:34:00,43.9,37.8,29.73,ESE,107,0.0,4.0,79,0.00,,---,0.00,VWS V14.00,2013-03-05 14:34:00,
2013-03-05 06:39:00,43.8,37.7,29.73,East,100,0.0,4.0,79,0.00,,---,0.00,VWS V14.00,2013-03-05 14:39:00,
2013-03-05 06:44:00,43.8,37.7,29.73,ESE,116,0.0,2.0,79,0.00,,---,0.00,VWS V14.00,2013-03-05 14:44:00,
2013-03-05 06:49:00,43.6,37.5,29.74,ESE,122,0.0,3.0,79,0.00,,---,0.00,VWS V14.00,2013-03-05 14:49:00,
2013-03-05 06:54:00,43.5,37.4,29.74,ESE,122,0.0,2.0,79,0.00,,---,0.00,VWS V14.00,2013-03-05 14:54:00,
2013-03-05 06:59:00,43.5,37.4,29.74,ESE,122,0.0,1.0,79,0.00,,---,0.00,VWS V14.00,2013-03-05 14:59:00,
2013-03-05 07:04:00,43.5,37.4,29.74,ESE,122,0.0,1.0,79,0.00,,---,0.00,VWS V14.00,2013-03-05 15:04:00,
2013-03-05 07:09:00,43.5,37.4,29.74,ESE,122,0.0,1.0,79,0.00,,---,0.00,VWS V14.00,2013-03-05 15:09:00,
2013-03-05 07:14:00,43.5,37.4,29.74,ESE,122,0.0,0.0,79,0.00,,---,0.00,VWS V14.00,2013-03-05 15:14:00,
2013-03-05 07:19:00,43.6,37.5,29.74,ESE,122,0.0,0.0,79,0.00,,---,0.00,VWS V14.00,2013-03-05 15:19:00,
2013-03-05 07:24:00,43.8,37.4,29.74,ESE,122,0.0,1.0,78,0.00,,---,0.00,VWS V14.00,2013-03-05 15:24:00,
2013-03-05 07:29:00,44.1,37.4,29.74,ESE,110,1.0,2.0,77,0.00,,---,0.00,VWS V14.00,2013-03-05 15:29:00,
2013-03-05 07:34:00,44.3,37.6,29.75,ESE,110,0.0,1.0,77,0.00,,---,0.00,VWS V14.00,2013-03-05 15:34:00,
2013-03-05 07:39:00,44.6,37.2,29.75,ESE,110,0.0,1.0,75,0.00,,---,0.00,VWS V14.00,2013-03-05 15:39:00,
2013-03-05 07:44:00,45.1,37.7,29.75,ESE,119,0.0,4.0,75,0.00,,---,0.00,VWS V14.00,2013-03-05 15:44:00,
2013-03-05 07:48:00,45.4,37.6,29.75,SSE,164,4.0,7.0,74,0.00,,---,0.00,VWS V14.00,2013-03-05 15:48:00,
2013-03-05 07:53:00,45.8,37.7,29.75,SSE,162,0.0,5.0,73,0.00,,---,0.00,VWS V14.00,2013-03-05 15:53:00,
2013-03-05 07:58:00,46.5,37.6,29.75,East,95,4.0,5.0,71,0.00,,---,0.00,VWS V14.00,2013-03-05 15:58:00,
2013-03-05 08:03:00,47.0,38.1,29.74,SE,140,0.0,2.0,71,0.00,,---,0.00,VWS V14.00,2013-03-05 16:03:00,
2013-03-05 08:08:00,47.3,38.0,29.74,SSW,198,2.0,6.0,70,0.00,,---,0.00,VWS V14.00,2013-03-05 16:08:00,
2013-03-05 08:13:00,47.4,38.1,29.74,South,191,2.0,8.0,70,0.00,,---,0.00,VWS V14.00,2013-03-05 16:13:00,
2013-03-05 08:18:00,47.4,38.1,29.75,ESE,104,1.0,6.0,70,0.00,,---,0.00,VWS V14.00,2013-03-05 16:18:00,
2013-03-05 08:23:00,47.6,38.3,29.75,South,176,0.0,5.0,70,0.00,,---,0.00,VWS V14.00,2013-03-05 16:23:00,
2013-03-05 08:28:00,47.6,38.3,29.75,SSE,150,1.0,6.0,70,0.00,,---,0.00,VWS V14.00,2013-03-05 16:28:00,
2013-03-05 08:33:00,47.6,38.3,29.74,SSW,195,2.0,5.0,70,0.00,,---,0.00,VWS V14.00,2013-03-05 16:33:00,
2013-03-05 08:38:00,47.6,38.0,29.74,SSE,165,5.0,6.0,69,0.00,,---,0.00,VWS V14.00,2013-03-05 16:38:00,
2013-03-05 08:43:00,47.9,38.2,29.74,South,190,3.0,5.0,69,0.00,,---,0.00,VWS V14.00,2013-03-05 16:43:00,
2013-03-05 08:48:00,48.3,37.9,29.74,SSE,153,4.0,7.0,67,0.00,,---,0.00,VWS V14.00,2013-03-05 16:48:00,
2013-03-05 08:53:00,48.8,38.7,29.74,SSE,149,4.0,7.0,68,0.00,,---,0.00,VWS V14.00,2013-03-05 16:53:00,
2013-03-05 08:58:00,49.4,39.3,29.74,South,174,4.0,6.0,68,0.00,,---,0.00,VWS V14.00,2013-03-05 16:58:00,
2013-03-05 09:03:00,49.4,38.1,29.74,South,179,1.0,8.0,65,0.00,,---,0.00,VWS V14.00,2013-03-05 17:03:00,
2013-03-05 09:08:00,49.5,37.8,29.74,SE,131,0.0,6.0,64,0.00,,---,0.00,VWS V14.00,2013-03-05 17:08:00,
2013-03-05 09:13:00,49.4,37.3,29.74,SSE,165,0.0,6.0,63,0.00,,---,0.00,VWS V14.00,2013-03-05 17:13:00,
2013-03-05 09:18:00,49.6,37.5,29.74,SE,134,0.0,6.0,63,0.00,,---,0.00,VWS V14.00,2013-03-05 17:18:00,
2013-03-05 09:23:00,49.9,37.4,29.74,South,188,4.0,5.0,62,0.00,,---,0.00,VWS V14.00,2013-03-05 17:23:00,
2013-03-05 09:28:00,50.4,37.0,29.74,SSE,163,0.0,6.0,60,0.00,,---,0.00,VWS V14.00,2013-03-05 17:28:00,
2013-03-05 09:33:00,51.3,37.0,29.73,SSE,153,0.0,7.0,58,0.00,,---,0.00,VWS V14.00,2013-03-05 17:33:00,
2013-03-05 09:38:00,51.9,37.6,29.73,South,174,4.0,6.0,58,0.00,,---,0.00,VWS V14.00,2013-03-05 17:38:00,
2013-03-05 09:43:00,52.3,36.6,29.73,South,176,2.0,7.0,55,0.00,,---,0.00,VWS V14.00,2013-03-05 17:43:00,
2013-03-05 09:48:00,52.5,36.3,29.73,South,174,0.0,6.0,54,0.00,,---,0.00,VWS V14.00,2013-03-05 17:48:00,
2013-03-05 09:53:00,52.6,36.0,29.72,SSW,209,3.0,6.0,53,0.00,,---,0.00,VWS V14.00,2013-03-05 17:53:00,
2013-03-05 09:58:00,53.1,36.4,29.72,South,184,4.0,6.0,53,0.00,,---,0.00,VWS V14.00,2013-03-05 17:58:00,
2013-03-05 10:03:00,53.5,35.3,29.72,South,180,0.0,6.0,50,0.00,,---,0.00,VWS V14.00,2013-03-05 18:03:00,
2013-03-05 10:08:00,54.1,34.9,29.72,SSW,205,3.0,7.0,48,0.00,,---,0.00,VWS V14.00,2013-03-05 18:08:00,
2013-03-05 10:13:00,54.4,33.0,29.72,ESE,108,5.0,6.0,44,0.00,,---,0.00,VWS V14.00,2013-03-05 18:13:00,
2013-03-05 10:18:00,54.7,33.8,29.72,South,171,0.0,4.0,45,0.00,,---,0.00,VWS V14.00,2013-03-05 18:18:00,
2013-03-05 10:23:00,54.7,32.7,29.71,SSW,193,1.0,8.0,43,0.00,,---,0.00,VWS V14.00,2013-03-05 18:23:00,
2013-03-05 10:28:00,54.5,31.9,29.71,SSE,151,5.0,8.0,42,0.00,,---,0.00,VWS V14.00,2013-03-05 18:28:00,
2013-03-05 10:33:00,54.7,32.7,29.71,SW,229,5.0,9.0,43,0.00,,---,0.00,VWS V14.00,2013-03-05 18:33:00,
2013-03-05 10:38:00,55.0,32.9,29.71,SSW,196,1.0,7.0,43,0.00,,---,0.00,VWS V14.00,2013-03-05 18:38:00,
2013-03-05 10:43:00,55.7,33.6,29.71,SE,136,0.0,5.0,43,0.00,,---,0.00,VWS V14.00,2013-03-05 18:43:00,
2013-03-05 10:48:00,55.7,34.1,29.71,SSW,202,7.0,9.0,44,0.00,,---,0.00,VWS V14.00,2013-03-05 18:48:00,
2013-03-05 10:53:00,56.0,33.8,29.71,SE,143,1.0,5.0,43,0.00,,---,0.00,VWS V14.00,2013-03-05 18:53:00,
2013-03-05 10:58:00,56.3,34.7,29.71,SSE,155,0.0,9.0,44,0.00,,---,0.00,VWS V14.00,2013-03-05 18:58:00,
2013-03-05 11:03:00,56.7,35.6,29.71,SSW,192,4.0,7.0,45,0.00,,---,0.00,VWS V14.00,2013-03-05 19:03:00,
2013-03-05 11:08:00,56.7,36.7,29.70,SW,236,7.0,9.0,47,0.00,,---,0.00,VWS V14.00,2013-03-05 19:08:00,
2013-03-05 11:13:00,56.6,36.6,29.70,SW,225,4.0,9.0,47,0.00,,---,0.00,VWS V14.00,2013-03-05 19:13:00,
2013-03-05 11:18:00,56.3,35.2,29.70,SSW,196,4.0,9.0,45,0.00,,---,0.00,VWS V14.00,2013-03-05 19:18:00,
2013-03-05 11:23:00,56.7,37.8,29.69,SW,223,2.0,8.0,49,0.00,,---,0.00,VWS V14.00,2013-03-05 19:23:00,
2013-03-05 11:28:00,56.9,38.0,29.69,SSE,158,0.0,8.0,49,0.00,,---,0.00,VWS V14.00,2013-03-05 19:28:00,
2013-03-05 11:33:00,56.7,38.3,29.69,WSW,243,7.0,9.0,50,0.00,,---,0.00,VWS V14.00,2013-03-05 19:33:00,
2013-03-05 11:38:00,56.3,35.8,29.69,SSE,160,1.0,11.0,46,0.00,,---,0.00,VWS V14.00,2013-03-05 19:38:00,
2013-03-05 11:43:00,56.9,38.0,29.69,SW,224,7.0,10.0,49,0.00,,---,0.00,VWS V14.00,2013-03-05 19:43:00,
2013-03-05 11:48:00,56.7,37.2,29.69,SW,231,5.0,8.0,48,0.00,,---,0.00,VWS V14.00,2013-03-05 19:48:00,
2013-03-05 11:53:00,56.6,38.2,29.69,SW,236,6.0,10.0,50,0.00,,---,0.00,VWS V14.00,2013-03-05 19:53:00,
2013-03-05 11:58:00,56.2,37.8,29.69,SSW,208,6.0,9.0,50,0.00,,---,0.00,VWS V14.00,2013-03-05 19:58:00,
2013-03-05 12:03:00,56.2,37.3,29.69,SSW,198,4.0,10.0,49,0.00,,---,0.00,VWS V14.00,2013-03-05 20:03:00,
2013-03-05 12:08:00,56.3,37.9,29.69,SW,224,7.0,10.0,50,0.00,,---,0.00,VWS V14.00,2013-03-05 20:08:00,
2013-03-05 12:13:00,56.2,37.8,29.69,West,270,7.0,7.0,50,0.00,,---,0.00,VWS V14.00,2013-03-05 20:13:00,
2013-03-05 12:18:00,57.0,38.0,29.69,WSW,242,5.0,10.0,49,0.00,,---,0.00,VWS V14.00,2013-03-05 20:18:00,
2013-03-05 12:23:00,58.0,37.9,29.68,SW,224,7.0,11.0,47,0.00,,---,0.00,VWS V14.00,2013-03-05 20:23:00,
2013-03-05 12:28:00,57.6,37.5,29.68,SSW,206,5.0,10.0,47,0.00,,---,0.00,VWS V14.00,2013-03-05 20:28:00,
2013-03-05 12:33:00,57.6,37.5,29.68,SW,229,5.0,13.0,47,0.00,,---,0.00,VWS V14.00,2013-03-05 20:33:00,
2013-03-05 12:38:00,58.9,35.3,29.68,SW,217,4.0,7.0,41,0.00,,---,0.00,VWS V14.00,2013-03-05 20:38:00,
2013-03-05 12:43:00,59.5,35.2,29.68,SSE,159,2.0,9.0,40,0.00,,---,0.00,VWS V14.00,2013-03-05 20:43:00,
2013-03-05 12:48:00,59.3,34.4,29.68,SW,214,5.0,9.0,39,0.00,,---,0.00,VWS V14.00,2013-03-05 20:48:00,
2013-03-05 12:53:00,59.3,33.7,29.66,SSE,162,1.0,8.0,38,0.00,,---,0.00,VWS V14.00,2013-03-05 20:53:00,
2013-03-05 12:58:00,59.8,35.5,29.66,SW,229,5.0,9.0,40,0.00,,---,0.00,VWS V14.00,2013-03-05 20:58:00,
2013-03-05 13:03:00,60.1,35.1,29.66,SW,219,12.0,12.0,39,0.00,,---,0.00,VWS V14.00,2013-03-05 21:03:00,
2013-03-05 13:08:00,60.1,35.7,29.66,SW,232,5.0,10.0,40,0.00,,---,0.00,VWS V14.00,2013-03-05 21:08:00,
2013-03-05 13:13:00,59.9,36.2,29.66,WSW,238,7.0,9.0,41,0.00,,---,0.00,VWS V14.00,2013-03-05 21:13:00,
2013-03-05 13:18:00,60.1,36.3,29.66,SSE,154,4.0,13.0,41,0.00,,---,0.00,VWS V14.00,2013-03-05 21:18:00,
2013-03-05 13:23:00,60.5,37.3,29.65,SW,231,7.0,10.0,42,0.00,,---,0.00,VWS V14.00,2013-03-05 21:23:00,
2013-03-05 13:28:00,60.2,37.0,29.65,South,190,2.0,14.0,42,0.00,,---,0.00,VWS V14.00,2013-03-05 21:28:00,
2013-03-05 13:33:00,60.7,36.9,29.65,SW,216,7.0,10.0,41,0.00,,---,0.00,VWS V14.00,2013-03-05 21:33:00,
2013-03-05 13:38:00,60.5,36.7,29.65,West,267,5.0,6.0,41,0.00,,---,0.00,VWS V14.00,2013-03-05 21:38:00,
2013-03-05 13:43:00,61.6,37.7,29.65,South,179,5.0,7.0,41,0.00,,---,0.00,VWS V14.00,2013-03-05 21:43:00,
2013-03-05 13:48:00,61.8,37.2,29.65,SW,231,5.0,10.0,40,0.00,,---,0.00,VWS V14.00,2013-03-05 21:48:00,
2013-03-05 13:53:00,61.3,38.6,29.64,South,169,7.0,9.0,43,0.00,,---,0.00,VWS V14.00,2013-03-05 21:53:00,
2013-03-05 13:58:00,61.6,37.7,29.64,SSW,213,7.0,10.0,41,0.00,,---,0.00,VWS V14.00,2013-03-05 21:58:00,
2013-03-05 14:03:00,61.8,37.2,29.64,South,173,5.0,9.0,40,0.00,,---,0.00,VWS V14.00,2013-03-05 22:03:00,
2013-03-05 14:08:00,61.6,37.7,29.63,WSW,240,1.0,8.0,41,0.00,,---,0.00,VWS V14.00,2013-03-05 22:08:00,
2013-03-05 14:13:00,61.3,37.4,29.63,WSW,243,5.0,9.0,41,0.00,,---,0.00,VWS V14.00,2013-03-05 22:13:00,
2013-03-05 14:18:00,61.3,37.4,29.63,West,276,4.0,9.0,41,0.00,,---,0.00,VWS V14.00,2013-03-05 22:18:00,
2013-03-05 14:23:00,61.2,38.0,29.63,WSW,237,7.0,10.0,42,0.00,,---,0.00,VWS V14.00,2013-03-05 22:23:00,
2013-03-05 14:27:00,61.0,38.4,29.63,WSW,238,7.0,10.0,43,0.00,,---,0.00,VWS V14.00,2013-03-05 22:27:00,
2013-03-05 14:32:00,61.2,38.0,29.63,SSW,201,6.0,10.0,42,0.00,,---,0.00,VWS V14.00,2013-03-05 22:32:00,
2013-03-05 14:38:00,60.9,38.9,29.63,WSW,255,8.0,10.0,44,0.00,,---,0.00,VWS V14.00,2013-03-05 22:38:00,
2013-03-05 14:42:00,61.0,38.4,29.63,West,269,4.0,8.0,43,0.00,,---,0.00,VWS V14.00,2013-03-05 22:42:00,
2013-03-05 14:47:00,61.2,39.1,29.63,SW,233,6.0,11.0,44,0.00,,---,0.00,VWS V14.00,2013-03-05 22:47:00,
2013-03-05 14:52:00,60.9,40.5,29.63,West,274,6.0,9.0,47,0.00,,---,0.00,VWS V14.00,2013-03-05 22:52:00,
2013-03-05 14:57:00,60.4,39.5,29.63,SW,226,8.0,8.0,46,0.00,,---,0.00,VWS V14.00,2013-03-05 22:57:00,
2013-03-05 15:03:00,60.4,39.5,29.63,West,262,1.0,8.0,46,0.00,,---,0.00,VWS V14.00,2013-03-05 23:03:00,
2013-03-05 15:08:00,61.0,40.7,29.62,WSW,249,6.0,9.0,47,0.00,,---,0.00,VWS V14.00,2013-03-05 23:08:00,
2013-03-05 15:13:00,60.4,39.5,29.62,South,174,5.0,11.0,46,0.00,,---,0.00,VWS V14.00,2013-03-05 23:13:00,
2013-03-05 15:18:00,59.9,40.7,29.62,WSW,238,5.0,14.0,49,0.00,,---,0.00,VWS V14.00,2013-03-05 23:18:00,
2013-03-05 15:22:00,59.8,40.6,29.63,WSW,247,5.0,8.0,49,0.00,,---,0.00,VWS V14.00,2013-03-05 23:22:00,
2013-03-05 15:27:00,59.9,40.7,29.63,West,277,6.0,10.0,49,0.00,,---,0.00,VWS V14.00,2013-03-05 23:27:00,
2013-03-05 15:32:00,59.5,40.3,29.63,WSW,253,7.0,11.0,49,0.00,,---,0.00,VWS V14.00,2013-03-05 23:32:00,
2013-03-05 15:37:00,59.5,40.3,29.63,WSW,243,3.0,8.0,49,0.00,,---,0.00,VWS V14.00,2013-03-05 23:37:00,
2013-03-05 15:42:00,59.6,41.0,29.63,WNW,300,1.0,10.0,50,0.00,,---,0.00,VWS V14.00,2013-03-05 23:42:00,
2013-03-05 15:47:00,59.8,40.6,29.63,SW,229,9.0,11.0,49,0.00,,---,0.00,VWS V14.00,2013-03-05 23:47:00,
2013-03-05 15:52:00,59.5,40.9,29.63,West,272,8.0,8.0,50,0.00,,---,0.00,VWS V14.00,2013-03-05 23:52:00,
2013-03-05 15:57:00,59.3,40.7,29.63,WSW,248,6.0,10.0,50,0.00,,---,0.00,VWS V14.00,2013-03-05 23:57:00,
2013-03-05 16:02:00,59.3,40.2,29.63,West,264,9.0,11.0,49,0.00,,---,0.00,VWS V14.00,2013-03-06 00:02:00,
2013-03-05 16:07:00,59.2,40.6,29.62,WSW,242,4.0,8.0,50,0.00,,---,0.00,VWS V14.00,2013-03-06 00:07:00,
2013-03-05 16:12:00,59.6,41.0,29.62,West,262,6.0,6.0,50,0.00,,---,0.00,VWS V14.00,2013-03-06 00:12:00,
2013-03-05 16:17:00,59.8,41.1,29.62,West,269,2.0,8.0,50,0.00,,---,0.00,VWS V14.00,2013-03-06 00:17:00,
2013-03-05 16:22:00,59.6,40.4,29.62,West,276,2.0,10.0,49,0.00,,---,0.00,VWS V14.00,2013-03-06 00:22:00,
2013-03-05 16:27:00,59.3,40.7,29.62,SW,227,5.0,7.0,50,0.00,,---,0.00,VWS V14.00,2013-03-06 00:27:00,
2013-03-05 16:32:00,59.2,40.6,29.62,WSW,244,4.0,6.0,50,0.00,,---,0.00,VWS V14.00,2013-03-06 00:32:00,
2013-03-05 16:37:00,59.3,40.2,29.61,SW,236,5.0,8.0,49,0.00,,---,0.00,VWS V14.00,2013-03-06 00:37:00,
2013-03-05 16:42:00,59.2,40.6,29.61,SW,232,4.0,8.0,50,0.00,,---,0.00,VWS V14.00,2013-03-06 00:42:00,
2013-03-05 16:47:00,58.9,40.3,29.61,SSW,207,0.0,8.0,50,0.00,,---,0.00,VWS V14.00,2013-03-06 00:47:00,
2013-03-05 16:52:00,58.9,40.3,29.60,WSW,249,4.0,5.0,50,0.00,,---,0.00,VWS V14.00,2013-03-06 00:52:00,
2013-03-05 16:57:00,59.0,40.4,29.60,WSW,249,0.0,4.0,50,0.00,,---,0.00,VWS V14.00,2013-03-06 00:57:00,
2013-03-05 17:02:00,58.9,40.8,29.60,South,169,0.0,5.0,51,0.00,,---,0.00,VWS V14.00,2013-03-06 01:02:00,
2013-03-05 17:07:00,58.7,40.1,29.60,SW,214,2.0,6.0,50,0.00,,---,0.00,VWS V14.00,2013-03-06 01:07:00,
2013-03-05 17:12:00,58.3,39.8,29.60,SW,219,0.0,4.0,50,0.00,,---,0.00,VWS V14.00,2013-03-06 01:12:00,
2013-03-05 17:17:00,58.0,40.0,29.60,South,178,0.0,4.0,51,0.00,,---,0.00,VWS V14.00,2013-03-06 01:17:00,
2013-03-05 17:22:00,57.6,39.6,29.59,South,178,2.0,4.0,51,0.00,,---,0.00,VWS V14.00,2013-03-06 01:22:00,
2013-03-05 17:27:00,57.5,40.0,29.59,South,178,0.0,1.0,52,0.00,,---,0.00,VWS V14.00,2013-03-06 01:27:00,
2013-03-05 17:32:00,57.2,40.2,29.59,South,177,0.0,2.0,53,0.00,,---,0.00,VWS V14.00,2013-03-06 01:32:00,
2013-03-05 17:37:00,56.9,40.0,29.58,South,177,0.0,1.0,53,0.00,,---,0.00,VWS V14.00,2013-03-06 01:37:00,
2013-03-05 17:42:00,56.6,39.7,29.58,South,177,0.0,4.0,53,0.00,,---,0.00,VWS V14.00,2013-03-06 01:42:00,
2013-03-05 17:47:00,56.5,40.1,29.58,South,177,0.0,0.0,54,0.00,,---,0.00,VWS V14.00,2013-03-06 01:47:00,
2013-03-05 17:52:00,56.2,40.3,29.58,South,177,0.0,1.0,55,0.00,,---,0.00,VWS V14.00,2013-03-06 01:52:00,
2013-03-05 17:57:00,55.7,40.3,29.58,South,177,0.0,1.0,56,0.00,,---,0.00,VWS V14.00,2013-03-06 01:57:00,
2013-03-05 18:02:00,55.4,40.4,29.58,South,177,0.0,0.0,57,0.00,,---,0.00,VWS V14.00,2013-03-06 02:02:00,
2013-03-05 18:07:00,55.3,40.3,29.58,South,177,0.0,1.0,57,0.00,,---,0.00,VWS V14.00,2013-03-06 02:07:00,
2013-03-05 18:12:00,54.8,40.3,29.58,South,177,0.0,1.0,58,0.00,,---,0.00,VWS V14.00,2013-03-06 02:12:00,
2013-03-05 18:17:00,54.7,40.7,29.58,South,177,0.0,1.0,59,0.00,,---,0.00,VWS V14.00,2013-03-06 02:17:00,
2013-03-05 18:22:00,54.2,40.6,29.58,South,177,0.0,0.0,60,0.00,,---,0.00,VWS V14.00,2013-03-06 02:22:00,
2013-03-05 18:27:00,53.9,40.8,29.58,South,177,0.0,0.0,61,0.00,,---,0.00,VWS V14.00,2013-03-06 02:27:00,
2013-03-05 18:32:00,53.6,40.5,29.58,South,177,0.0,0.0,61,0.00,,---,0.00,VWS V14.00,2013-03-06 02:32:00,
2013-03-05 18:37:00,53.3,40.6,29.57,South,177,0.0,0.0,62,0.00,,---,0.00,VWS V14.00,2013-03-06 02:37:00,
2013-03-05 18:42:00,53.2,40.5,29.57,South,177,0.0,0.0,62,0.00,,---,0.00,VWS V14.00,2013-03-06 02:42:00,
2013-03-05 18:47:00,53.1,40.4,29.57,South,177,0.0,0.0,62,0.00,,---,0.00,VWS V14.00,2013-03-06 02:47:00,
2013-03-05 18:52:00,52.9,40.2,29.57,South,176,0.0,1.0,62,0.00,,---,0.00,VWS V14.00,2013-03-06 02:52:00,
2013-03-05 18:57:00,52.8,40.2,29.57,South,176,0.0,0.0,62,0.00,,---,0.00,VWS V14.00,2013-03-06 02:57:00,
2013-03-05 19:02:00,52.8,40.6,29.57,South,176,0.0,0.0,63,0.00,,---,0.00,VWS V14.00,2013-03-06 03:02:00,
2013-03-05 19:07:00,52.6,40.4,29.57,South,174,0.0,2.0,63,0.00,,---,0.00,VWS V14.00,2013-03-06 03:07:00,
2013-03-05 19:12:00,52.6,40.4,29.57,South,174,0.0,1.0,63,0.00,,---,0.00,VWS V14.00,2013-03-06 03:12:00,
2013-03-05 19:17:00,52.5,40.3,29.57,South,174,0.0,1.0,63,0.00,,---,0.00,VWS V14.00,2013-03-06 03:17:00,
2013-03-05 19:22:00,52.5,40.3,29.57,South,174,0.0,0.0,63,0.00,,---,0.00,VWS V14.00,2013-03-06 03:22:00,
2013-03-05 19:27:00,52.5,40.7,29.57,South,174,0.0,0.0,64,0.00,,---,0.00,VWS V14.00,2013-03-06 03:27:00,
2013-03-05 19:32:00,52.3,40.9,29.57,South,174,0.0,0.0,65,0.00,,---,0.00,VWS V14.00,2013-03-06 03:32:00,
2013-03-05 19:37:00,52.2,40.8,29.57,South,174,0.0,0.0,65,0.00,,---,0.00,VWS V14.00,2013-03-06 03:37:00,
2013-03-05 19:42:00,52.0,40.6,29.57,South,174,0.0,0.0,65,0.00,,---,0.00,VWS V14.00,2013-03-06 03:42:00,
2013-03-05 19:47:00,51.9,40.5,29.57,South,174,0.0,0.0,65,0.00,,---,0.00,VWS V14.00,2013-03-06 03:47:00,
2013-03-05 19:52:00,51.7,40.3,29.56,South,174,0.0,0.0,65,0.00,,---,0.00,VWS V14.00,2013-03-06 03:52:00,
2013-03-05 19:57:00,51.7,40.3,29.56,South,174,0.0,0.0,65,0.00,,---,0.00,VWS V14.00,2013-03-06 03:57:00,
2013-03-05 20:02:00,51.6,40.6,29.56,South,174,0.0,0.0,66,0.00,,---,0.00,VWS V14.00,2013-03-06 04:02:00,
2013-03-05 20:07:00,51.4,40.4,29.56,South,174,0.0,1.0,66,0.00,,---,0.00,VWS V14.00,2013-03-06 04:07:00,
2013-03-05 20:12:00,51.3,40.3,29.56,South,174,0.0,0.0,66,0.00,,---,0.00,VWS V14.00,2013-03-06 04:12:00,
2013-03-05 20:17:00,51.1,40.5,29.56,South,174,0.0,0.0,67,0.00,,---,0.00,VWS V14.00,2013-03-06 04:17:00,
2013-03-05 20:22:00,51.0,40.4,29.57,South,174,0.0,0.0,67,0.00,,---,0.00,VWS V14.00,2013-03-06 04:22:00,
2013-03-05 20:27:00,51.0,40.4,29.57,South,174,0.0,0.0,67,0.00,,---,0.00,VWS V14.00,2013-03-06 04:27:00,
2013-03-05 20:32:00,50.8,40.6,29.57,South,174,0.0,0.0,68,0.00,,---,0.00,VWS V14.00,2013-03-06 04:32:00,
2013-03-05 20:37:00,50.8,40.6,29.57,South,174,0.0,0.0,68,0.00,,---,0.00,VWS V14.00,2013-03-06 04:37:00,
2013-03-05 20:42:00,50.8,40.6,29.57,South,174,0.0,1.0,68,0.00,,---,0.00,VWS V14.00,2013-03-06 04:42:00,
2013-03-05 20:47:00,50.7,40.5,29.57,South,174,0.0,0.0,68,0.00,,---,0.00,VWS V14.00,2013-03-06 04:47:00,
2013-03-05 20:52:00,50.7,40.5,29.57,South,174,0.0,0.0,68,0.00,,---,0.00,VWS V14.00,2013-03-06 04:52:00,
2013-03-05 20:57:00,50.7,40.5,29.57,South,174,0.0,0.0,68,0.00,,---,0.00,VWS V14.00,2013-03-06 04:57:00,
2013-03-05 21:00:00,50.5,40.7,29.57,South,174,0.0,0.0,69,0.00,,---,0.00,VWS V14.00,2013-03-06 05:00:00,
2013-03-05 21:05:00,50.5,40.7,29.57,South,174,0.0,0.0,69,0.00,,---,0.00,VWS V14.00,2013-03-06 05:05:00,
2013-03-05 21:10:00,50.5,40.7,29.57,South,174,0.0,0.0,69,0.00,,---,0.00,VWS V14.00,2013-03-06 05:10:00,
2013-03-05 21:15:00,50.4,41.0,29.57,South,174,0.0,0.0,70,0.00,,---,0.00,VWS V14.00,2013-03-06 05:15:00,
2013-03-05 21:20:00,50.4,41.0,29.57,South,174,0.0,0.0,70,0.00,,---,0.00,VWS V14.00,2013-03-06 05:20:00,
2013-03-05 21:25:00,50.4,41.0,29.57,South,174,0.0,0.0,70,0.00,,---,0.00,VWS V14.00,2013-03-06 05:25:00,
2013-03-05 21:30:00,50.4,41.0,29.57,South,174,0.0,0.0,70,0.00,,---,0.00,VWS V14.00,2013-03-06 05:30:00,
2013-03-05 21:35:00,50.4,41.0,29.57,South,174,0.0,0.0,70,0.00,,---,0.00,VWS V14.00,2013-03-06 05:35:00,
2013-03-05 21:40:00,50.4,41.0,29.57,South,174,0.0,0.0,70,0.00,,---,0.00,VWS V14.00,2013-03-06 05:40:00,
2013-03-05 21:45:00,50.5,41.1,29.57,South,174,0.0,0.0,70,0.00,,---,0.00,VWS V14.00,2013-03-06 05:45:00,
2013-03-05 21:50:00,50.5,41.1,29.57,South,174,0.0,0.0,70,0.00,,---,0.00,VWS V14.00,2013-03-06 05:50:00,
2013-03-05 21:55:00,50.4,41.4,29.57,South,174,0.0,1.0,71,0.00,,---,0.00,VWS V14.00,2013-03-06 05:55:00,
2013-03-05 22:00:00,50.4,41.4,29.57,South,174,0.0,0.0,71,0.00,,---,0.00,VWS V14.00,2013-03-06 06:00:00,
2013-03-05 22:05:00,50.2,41.2,29.56,SSE,167,0.0,0.0,71,0.00,,---,0.00,VWS V14.00,2013-03-06 06:05:00,
2013-03-05 22:10:00,50.2,41.2,29.56,SSE,167,0.0,0.0,71,0.00,,---,0.00,VWS V14.00,2013-03-06 06:10:00,
2013-03-05 22:15:00,50.2,41.2,29.56,SSE,167,0.0,0.0,71,0.00,,---,0.00,VWS V14.00,2013-03-06 06:15:00,
2013-03-05 22:20:00,50.2,41.2,29.55,SSE,167,0.0,0.0,71,0.00,,---,0.00,VWS V14.00,2013-03-06 06:20:00,
2013-03-05 22:24:00,50.2,41.5,29.55,SSE,167,0.0,0.0,72,0.00,,---,0.00,VWS V14.00,2013-03-06 06:24:00,
2013-03-05 22:29:00,50.2,41.5,29.55,SSE,167,0.0,0.0,72,0.00,,---,0.00,VWS V14.00,2013-03-06 06:29:00,
2013-03-05 22:34:00,50.2,41.5,29.55,SSE,167,0.0,0.0,72,0.00,,---,0.00,VWS V14.00,2013-03-06 06:34:00,
2013-03-05 22:39:00,50.2,41.5,29.55,SSE,167,0.0,0.0,72,0.00,,---,0.00,VWS V14.00,2013-03-06 06:39:00,
2013-03-05 22:44:00,50.4,41.4,29.55,SSE,167,0.0,0.0,71,0.00,,---,0.00,VWS V14.00,2013-03-06 06:44:00,
2013-03-05 22:49:00,50.4,41.4,29.56,SSE,167,0.0,0.0,71,0.00,,---,0.00,VWS V14.00,2013-03-06 06:49:00,
2013-03-05 22:54:00,50.4,41.4,29.56,SSE,167,0.0,0.0,71,0.00,,---,0.00,VWS V14.00,2013-03-06 06:54:00,
2013-03-05 22:59:00,50.5,41.5,29.56,SSE,167,0.0,0.0,71,0.00,,---,0.00,VWS V14.00,2013-03-06 06:59:00,
2013-03-05 23:04:00,50.5,41.1,29.57,SSE,168,4.0,4.0,70,0.00,,---,0.00,VWS V14.00,2013-03-06 07:04:00,
2013-03-05 23:09:00,50.7,40.5,29.57,WSW,239,3.0,3.0,68,0.00,,---,0.00,VWS V14.00,2013-03-06 07:09:00,
2013-03-05 23:14:00,50.8,40.6,29.57,SW,224,3.0,3.0,68,0.00,,---,0.00,VWS V14.00,2013-03-06 07:14:00,
2013-03-05 23:19:00,50.8,40.6,29.58,SW,217,2.0,3.0,68,0.00,,---,0.00,VWS V14.00,2013-03-06 07:19:00,
2013-03-05 23:24:00,50.8,40.6,29.58,SSE,155,3.0,5.0,68,0.00,,---,0.00,VWS V14.00,2013-03-06 07:24:00,
2013-03-05 23:29:00,50.8,40.6,29.58,SSE,163,5.0,5.0,68,0.00,,---,0.00,VWS V14.00,2013-03-06 07:29:00,
2013-03-05 23:34:00,50.7,41.3,29.57,SSE,148,0.0,0.0,70,0.00,,---,0.00,VWS V14.00,2013-03-06 07:34:00,
2013-03-05 23:39:00,50.4,42.1,29.57,SSE,148,0.0,0.0,73,0.01,,---,0.01,VWS V14.00,2013-03-06 07:39:00,
2013-03-05 23:44:00,50.1,43.2,29.57,SSW,196,4.0,4.0,77,0.02,,---,0.02,VWS V14.00,2013-03-06 07:44:00,
2013-03-05 23:49:00,49.6,43.0,29.57,ESE,112,2.0,4.0,78,0.03,,---,0.03,VWS V14.00,2013-03-06 07:49:00,
2013-03-05 23:54:00,49.1,42.9,29.57,ESE,103,1.0,4.0,79,0.04,,---,0.04,VWS V14.00,2013-03-06 07:54:00,
2013-03-05 23:59:00,48.5,42.6,29.57,ESE,117,5.0,5.0,80,0.05,,---,0.05,VWS V14.00,2013-03-06 07:59:00,